Year,Month,Day,Hour,Minute,Value (Times are PST for windgust in km/hr)
2017,05,24,00,00,22.50
2017,05,24,00,01,19.30
2017,05,24,00,02,20.90
2017,05,24,00,03,29.00
2017,05,24,00,04,24.20
2017,05,24,00,05,25.70
2017,05,24,00,06,27.40
2017,05,24,00,07,27.40
2017,05,24,00,08,19.30
2017,05,24,00,09,27.40
2017,05,24,00,10,25.70
2017,05,24,00,11,24.20
2017,05,24,00,12,22.50
2017,05,24,00,13,33.80
2017,05,24,00,14,30.60
2017,05,24,00,15,38.60
2017,05,24,00,16,27.40
2017,05,24,00,17,30.60
2017,05,24,00,18,24.20
2017,05,24,00,19,25.70
2017,05,24,00,20,27.40
2017,05,24,00,21,29.00
2017,05,24,00,22,24.20
2017,05,24,00,23,30.60
2017,05,24,00,24,37.00
2017,05,24,00,25,30.60
2017,05,24,00,26,30.60
2017,05,24,00,27,20.90
2017,05,24,00,28,20.90
2017,05,24,00,29,30.60
2017,05,24,00,30,27.40
2017,05,24,00,31,17.70
2017,05,24,00,32,25.70
2017,05,24,00,33,25.70
2017,05,24,00,34,19.30
2017,05,24,00,35,4.80
2017,05,24,00,36,17.70
2017,05,24,00,37,20.90
2017,05,24,00,38,14.50
2017,05,24,00,39,4.80
2017,05,24,00,40,9.60
2017,05,24,00,41,16.10
2017,05,24,00,42,16.10
2017,05,24,00,43,6.40
2017,05,24,00,45,9.60
2017,05,24,00,46,22.50
2017,05,24,00,47,19.30
2017,05,24,00,48,11.30
2017,05,24,00,49,9.60
2017,05,24,00,50,16.10
2017,05,24,00,51,11.30
2017,05,24,00,52,17.70
2017,05,24,00,53,17.70
2017,05,24,00,54,3.20
2017,05,24,00,55,3.20
2017,05,24,00,56,3.20
2017,05,24,00,57,19.30
2017,05,24,00,58,3.20
2017,05,24,01,06,1.60
2017,05,24,01,13,1.60
2017,05,24,01,15,3.20
2017,05,24,01,16,9.60
2017,05,24,01,17,4.80
2017,05,24,01,18,3.20
2017,05,24,01,19,6.40
2017,05,24,01,20,4.80
2017,05,24,01,21,6.40
2017,05,24,01,22,3.20
2017,05,24,01,23,3.20
2017,05,24,01,24,4.80
2017,05,24,01,25,3.20
2017,05,24,01,26,4.80
2017,05,24,01,27,4.80
2017,05,24,01,28,4.80
2017,05,24,01,29,4.80
2017,05,24,01,30,11.30
2017,05,24,01,31,9.60
2017,05,24,01,32,4.80
2017,05,24,01,33,6.40
2017,05,24,01,34,8.10
2017,05,24,01,35,12.90
2017,05,24,01,36,4.80
2017,05,24,01,37,16.10
2017,05,24,01,38,6.40
2017,05,24,01,39,17.70
2017,05,24,01,40,16.10
2017,05,24,01,41,20.90
2017,05,24,01,42,11.30
2017,05,24,01,43,4.80
2017,05,24,01,44,3.20
2017,05,24,01,45,3.20
2017,05,24,01,46,14.50
2017,05,24,01,47,6.40
2017,05,24,01,48,14.50
2017,05,24,01,49,12.90
2017,05,24,01,50,4.80
2017,05,24,01,51,4.80
2017,05,24,01,52,4.80
2017,05,24,01,53,3.20
2017,05,24,01,54,4.80
2017,05,24,01,55,3.20
2017,05,24,01,56,16.10
2017,05,24,01,57,14.50
2017,05,24,01,58,3.20
2017,05,24,01,59,14.50
2017,05,24,02,00,20.90
2017,05,24,02,01,19.30
2017,05,24,02,02,3.20
2017,05,24,02,03,6.40
2017,05,24,02,04,3.20
2017,05,24,02,05,4.80
2017,05,24,02,06,8.10
2017,05,24,02,07,3.20
2017,05,24,02,08,4.80
2017,05,24,02,09,1.60
2017,05,24,02,11,11.30
2017,05,24,02,12,4.80
2017,05,24,02,13,11.30
2017,05,24,02,14,3.20
2017,05,24,02,15,4.80
2017,05,24,02,16,3.20
2017,05,24,02,17,4.80
2017,05,24,02,18,3.20
2017,05,24,02,19,19.30
2017,05,24,02,20,19.30
2017,05,24,02,21,3.20
2017,05,24,02,22,1.60
2017,05,24,02,28,3.20
2017,05,24,02,29,4.80
2017,05,24,02,33,3.20
2017,05,24,02,34,1.60
2017,05,24,02,35,6.40
2017,05,24,02,36,1.60
2017,05,24,02,38,3.20
2017,05,24,02,49,1.60
2017,05,24,02,50,3.20
2017,05,24,03,10,3.20
2017,05,24,03,11,3.20
2017,05,24,03,12,8.10
2017,05,24,03,13,6.40
2017,05,24,03,14,6.40
2017,05,24,03,15,6.40
2017,05,24,03,16,3.20
2017,05,24,03,17,6.40
2017,05,24,03,18,4.80
2017,05,24,03,19,4.80
2017,05,24,03,20,8.10
2017,05,24,03,21,6.40
2017,05,24,03,22,6.40
2017,05,24,03,23,9.60
2017,05,24,03,24,6.40
2017,05,24,03,25,8.10
2017,05,24,03,26,8.10
2017,05,24,03,27,11.30
2017,05,24,03,28,9.60
2017,05,24,03,29,6.40
2017,05,24,03,30,16.10
2017,05,24,03,31,9.60
2017,05,24,03,32,1.60
2017,05,24,03,33,4.80
2017,05,24,03,34,6.40
2017,05,24,03,35,9.60
2017,05,24,03,36,4.80
2017,05,24,03,37,3.20
2017,05,24,03,38,6.40
2017,05,24,03,39,6.40
2017,05,24,03,40,3.20
2017,05,24,03,41,4.80
2017,05,24,03,42,4.80
2017,05,24,03,43,4.80
2017,05,24,03,45,4.80
2017,05,24,04,09,1.60
2017,05,24,04,12,3.20
2017,05,24,04,13,1.60
2017,05,24,04,14,4.80
2017,05,24,04,15,3.20
2017,05,24,04,16,3.20
2017,05,24,04,17,1.60
2017,05,24,04,18,3.20
2017,05,24,04,19,3.20
2017,05,24,04,20,3.20
2017,05,24,04,21,6.40
2017,05,24,04,22,6.40
2017,05,24,04,23,4.80
2017,05,24,04,24,4.80
2017,05,24,04,25,4.80
2017,05,24,04,26,6.40
2017,05,24,04,27,4.80
2017,05,24,04,28,6.40
2017,05,24,04,29,9.60
2017,05,24,04,30,11.30
2017,05,24,04,31,9.60
2017,05,24,04,32,8.10
2017,05,24,04,33,6.40
2017,05,24,04,34,8.10
2017,05,24,04,35,6.40
2017,05,24,04,36,9.60
2017,05,24,04,37,9.60
2017,05,24,04,38,9.60
2017,05,24,04,39,14.50
2017,05,24,04,40,6.40
2017,05,24,04,41,8.10
2017,05,24,04,42,11.30
2017,05,24,04,43,8.10
2017,05,24,04,44,6.40
2017,05,24,04,45,6.40
2017,05,24,04,46,9.60
2017,05,24,04,47,6.40
2017,05,24,04,48,9.60
2017,05,24,04,49,6.40
2017,05,24,04,50,6.40
2017,05,24,04,51,11.30
2017,05,24,04,52,8.10
2017,05,24,04,53,11.30
2017,05,24,04,54,9.60
2017,05,24,04,55,6.40
2017,05,24,04,56,19.30
2017,05,24,04,57,8.10
2017,05,24,04,58,6.40
2017,05,24,04,59,14.50
2017,05,24,05,00,4.80
2017,05,24,05,01,4.80
2017,05,24,05,02,4.80
2017,05,24,05,03,6.40
2017,05,24,05,04,6.40
2017,05,24,05,05,6.40
2017,05,24,05,06,6.40
2017,05,24,05,07,9.60
2017,05,24,05,08,8.10
2017,05,24,05,09,9.60
2017,05,24,05,10,17.70
2017,05,24,05,11,12.90
2017,05,24,05,12,12.90
2017,05,24,05,13,12.90
2017,05,24,05,14,12.90
2017,05,24,05,15,12.90
2017,05,24,05,16,12.90
2017,05,24,05,17,12.90
2017,05,24,05,18,16.10
2017,05,24,05,19,9.60
2017,05,24,05,20,8.10
2017,05,24,05,21,11.30
2017,05,24,05,22,16.10
2017,05,24,05,23,4.80
2017,05,24,05,24,3.20
2017,05,24,05,25,6.40
2017,05,24,05,26,6.40
2017,05,24,05,27,6.40
2017,05,24,05,28,6.40
2017,05,24,05,29,3.20
2017,05,24,05,30,4.80
2017,05,24,05,31,8.10
2017,05,24,05,32,4.80
2017,05,24,05,34,8.10
2017,05,24,05,35,1.60
2017,05,24,05,56,3.20
2017,05,24,05,57,6.40
2017,05,24,05,58,9.60
2017,05,24,05,59,4.80
2017,05,24,06,01,4.80
2017,05,24,06,07,8.10
2017,05,24,06,08,8.10
2017,05,24,06,09,4.80
2017,05,24,06,10,3.20
2017,05,24,06,12,3.20
2017,05,24,06,13,3.20
2017,05,24,06,15,6.40
2017,05,24,06,16,8.10
2017,05,24,06,17,6.40
2017,05,24,06,18,6.40
2017,05,24,06,19,8.10
2017,05,24,06,20,8.10
2017,05,24,06,21,9.60
2017,05,24,06,22,8.10
2017,05,24,06,23,4.80
2017,05,24,06,24,4.80
2017,05,24,06,25,6.40
2017,05,24,06,26,6.40
2017,05,24,06,27,6.40
2017,05,24,06,28,6.40
2017,05,24,06,29,3.20
2017,05,24,06,30,4.80
2017,05,24,06,31,8.10
2017,05,24,06,32,4.80
2017,05,24,06,33,4.80
2017,05,24,06,34,4.80
2017,05,24,06,35,6.40
2017,05,24,06,36,8.10
2017,05,24,06,37,4.80
2017,05,24,06,38,3.20
2017,05,24,06,39,8.10
2017,05,24,06,40,9.60
2017,05,24,06,41,9.60
2017,05,24,06,42,9.60
2017,05,24,06,43,9.60
2017,05,24,06,44,4.80
2017,05,24,06,45,6.40
2017,05,24,06,46,16.10
2017,05,24,06,47,8.10
2017,05,24,06,48,6.40
2017,05,24,06,49,6.40
2017,05,24,06,50,4.80
2017,05,24,06,51,9.60
2017,05,24,06,52,8.10
2017,05,24,06,53,6.40
2017,05,24,06,54,4.80
2017,05,24,06,55,1.60
2017,05,24,06,56,6.40
2017,05,24,06,57,16.10
2017,05,24,06,58,12.90
2017,05,24,06,59,9.60
2017,05,24,07,00,8.10
2017,05,24,07,01,6.40
2017,05,24,07,02,9.60
2017,05,24,07,03,8.10
2017,05,24,07,04,4.80
2017,05,24,07,05,8.10
2017,05,24,07,06,11.30
2017,05,24,07,07,20.90
2017,05,24,07,08,19.30
2017,05,24,07,09,8.10
2017,05,24,07,10,6.40
2017,05,24,07,11,3.20
2017,05,24,07,12,6.40
2017,05,24,07,13,16.10
2017,05,24,07,14,8.10
2017,05,24,07,15,8.10
2017,05,24,07,16,14.50
2017,05,24,07,17,14.50
2017,05,24,07,18,11.30
2017,05,24,07,19,9.60
2017,05,24,07,20,17.70
2017,05,24,07,21,9.60
2017,05,24,07,22,19.30
2017,05,24,07,23,16.10
2017,05,24,07,24,11.30
2017,05,24,07,25,6.40
2017,05,24,07,26,9.60
2017,05,24,07,27,6.40
2017,05,24,07,28,17.70
2017,05,24,07,29,8.10
2017,05,24,07,30,19.30
2017,05,24,07,31,11.30
2017,05,24,07,32,4.80
2017,05,24,07,33,3.20
2017,05,24,07,34,8.10
2017,05,24,07,35,8.10
2017,05,24,07,36,6.40
2017,05,24,07,37,9.60
2017,05,24,07,38,11.30
2017,05,24,07,39,22.50
2017,05,24,07,40,22.50
2017,05,24,07,41,17.70
2017,05,24,07,42,11.30
2017,05,24,07,43,11.30
2017,05,24,07,44,16.10
2017,05,24,07,45,8.10
2017,05,24,07,46,11.30
2017,05,24,07,47,19.30
2017,05,24,07,48,6.40
2017,05,24,07,49,4.80
2017,05,24,07,50,17.70
2017,05,24,07,51,8.10
2017,05,24,07,52,8.10
2017,05,24,07,53,4.80
2017,05,24,07,54,16.10
2017,05,24,07,55,20.90
2017,05,24,07,56,6.40
2017,05,24,07,57,19.30
2017,05,24,07,58,16.10
2017,05,24,07,59,11.30
2017,05,24,08,00,20.90
2017,05,24,08,01,8.10
2017,05,24,08,02,4.80
2017,05,24,08,03,4.80
2017,05,24,08,04,6.40
2017,05,24,08,05,4.80
2017,05,24,08,06,19.30
2017,05,24,08,07,9.60
2017,05,24,08,08,8.10
2017,05,24,08,09,8.10
2017,05,24,08,10,9.60
2017,05,24,08,11,4.80
2017,05,24,08,12,6.40
2017,05,24,08,13,19.30
2017,05,24,08,14,14.50
2017,05,24,08,15,4.80
2017,05,24,08,16,17.70
2017,05,24,08,17,20.90
2017,05,24,08,18,17.70
2017,05,24,08,19,14.50
2017,05,24,08,20,4.80
2017,05,24,08,21,20.90
2017,05,24,08,22,9.60
2017,05,24,08,23,16.10
2017,05,24,08,24,17.70
2017,05,24,08,25,17.70
2017,05,24,08,26,17.70
2017,05,24,08,27,20.90
2017,05,24,08,28,17.70
2017,05,24,08,29,6.40
2017,05,24,08,30,4.80
2017,05,24,08,31,9.60
2017,05,24,08,32,9.60
2017,05,24,08,33,11.30
2017,05,24,08,34,9.60
2017,05,24,08,35,20.90
2017,05,24,08,36,19.30
2017,05,24,08,37,19.30
2017,05,24,08,38,8.10
2017,05,24,08,39,20.90
2017,05,24,08,40,20.90
2017,05,24,08,41,19.30
2017,05,24,08,42,9.60
2017,05,24,08,43,19.30
2017,05,24,08,44,25.70
2017,05,24,08,45,22.50
2017,05,24,08,46,19.30
2017,05,24,08,47,20.90
2017,05,24,08,48,22.50
2017,05,24,08,49,29.00
2017,05,24,08,50,24.20
2017,05,24,08,51,17.70
2017,05,24,08,52,17.70
2017,05,24,08,53,17.70
2017,05,24,08,54,22.50
2017,05,24,08,55,19.30
2017,05,24,08,56,27.40
2017,05,24,08,57,22.50
2017,05,24,08,58,19.30
2017,05,24,08,59,24.20
2017,05,24,09,00,22.50
2017,05,24,09,01,17.70
2017,05,24,09,02,3.20
2017,05,24,09,03,4.80
2017,05,24,09,04,4.80
2017,05,24,09,05,19.30
2017,05,24,09,06,27.40
2017,05,24,09,07,25.70
2017,05,24,09,08,22.50
2017,05,24,09,09,25.70
2017,05,24,09,10,27.40
2017,05,24,09,11,19.30
2017,05,24,09,12,20.90
2017,05,24,09,13,24.20
2017,05,24,09,14,16.10
2017,05,24,09,15,24.20
2017,05,24,09,16,16.10
2017,05,24,09,17,22.50
2017,05,24,09,18,25.70
2017,05,24,09,19,20.90
2017,05,24,09,20,17.70
2017,05,24,09,21,17.70
2017,05,24,09,22,25.70
2017,05,24,09,23,25.70
2017,05,24,09,24,16.10
2017,05,24,09,25,22.50
2017,05,24,09,26,16.10
2017,05,24,09,27,24.20
2017,05,24,09,28,20.90
2017,05,24,09,29,24.20
2017,05,24,09,30,25.70
2017,05,24,09,31,22.50
2017,05,24,09,32,27.40
2017,05,24,09,33,20.90
2017,05,24,09,34,17.70
2017,05,24,09,35,14.50
2017,05,24,09,36,20.90
2017,05,24,09,37,12.90
2017,05,24,09,38,20.90
2017,05,24,09,39,22.50
2017,05,24,09,40,17.70
2017,05,24,09,41,29.00
2017,05,24,09,42,17.70
2017,05,24,09,43,17.70
2017,05,24,09,44,19.30
2017,05,24,09,45,20.90
2017,05,24,09,46,17.70
2017,05,24,09,47,17.70
2017,05,24,09,48,17.70
2017,05,24,09,49,6.40
2017,05,24,09,50,20.90
2017,05,24,09,51,17.70
2017,05,24,09,52,6.40
2017,05,24,09,53,8.10
2017,05,24,09,54,16.10
2017,05,24,09,55,6.40
2017,05,24,09,56,19.30
2017,05,24,09,57,19.30
2017,05,24,09,58,24.20
2017,05,24,09,59,25.70
2017,05,24,10,00,22.50
2017,05,24,10,01,14.50
2017,05,24,10,02,20.90
2017,05,24,10,03,17.70
2017,05,24,10,04,24.20
2017,05,24,10,05,19.30
2017,05,24,10,06,22.50
2017,05,24,10,07,20.90
2017,05,24,10,08,17.70
2017,05,24,10,09,19.30
2017,05,24,10,10,17.70
2017,05,24,10,11,16.10
2017,05,24,10,12,11.30
2017,05,24,10,13,19.30
2017,05,24,10,14,19.30
2017,05,24,10,15,20.90
2017,05,24,10,16,25.70
2017,05,24,10,17,25.70
2017,05,24,10,18,22.50
2017,05,24,10,19,20.90
2017,05,24,10,20,22.50
2017,05,24,10,21,20.90
2017,05,24,10,22,19.30
2017,05,24,10,23,24.20
2017,05,24,10,24,20.90
2017,05,24,10,25,22.50
2017,05,24,10,26,19.30
2017,05,24,10,27,20.90
2017,05,24,10,28,20.90
2017,05,24,10,29,20.90
2017,05,24,10,30,17.70
2017,05,24,10,31,22.50
2017,05,24,10,32,17.70
2017,05,24,10,33,19.30
2017,05,24,10,34,19.30
2017,05,24,10,35,20.90
2017,05,24,10,36,24.20
2017,05,24,10,37,17.70
2017,05,24,10,38,20.90
2017,05,24,10,39,24.20
2017,05,24,10,40,16.10
2017,05,24,10,41,16.10
2017,05,24,10,42,17.70
2017,05,24,10,43,6.40
2017,05,24,10,44,25.70
2017,05,24,10,45,22.50
2017,05,24,10,46,29.00
2017,05,24,10,47,24.20
2017,05,24,10,48,19.30
2017,05,24,10,49,25.70
2017,05,24,10,50,19.30
2017,05,24,10,51,20.90
2017,05,24,10,52,17.70
2017,05,24,10,53,25.70
2017,05,24,10,54,33.80
2017,05,24,10,55,30.60
2017,05,24,10,56,30.60
2017,05,24,10,57,30.60
2017,05,24,10,58,33.80
2017,05,24,10,59,25.70
2017,05,24,11,00,25.70
2017,05,24,11,01,30.60
2017,05,24,11,02,27.40
2017,05,24,11,03,19.30
2017,05,24,11,04,32.20
2017,05,24,11,05,25.70
2017,05,24,11,06,20.90
2017,05,24,11,07,33.80
2017,05,24,11,08,29.00
2017,05,24,11,09,27.40
2017,05,24,11,10,27.40
2017,05,24,11,11,29.00
2017,05,24,11,12,27.40
2017,05,24,11,13,24.20
2017,05,24,11,14,29.00
2017,05,24,11,15,30.60
2017,05,24,11,16,33.80
2017,05,24,11,17,29.00
2017,05,24,11,18,22.50
2017,05,24,11,19,30.60
2017,05,24,11,20,24.20
2017,05,24,11,21,24.20
2017,05,24,11,22,29.00
2017,05,24,11,23,32.20
2017,05,24,11,24,22.50
2017,05,24,11,25,25.70
2017,05,24,11,26,24.20
2017,05,24,11,27,22.50
2017,05,24,11,28,24.20
2017,05,24,11,29,25.70
2017,05,24,11,30,27.40
2017,05,24,11,31,29.00
2017,05,24,11,32,25.70
2017,05,24,11,33,19.30
2017,05,24,11,34,22.50
2017,05,24,11,35,22.50
2017,05,24,11,36,35.40
2017,05,24,11,37,25.70
2017,05,24,11,38,25.70
2017,05,24,11,39,17.70
2017,05,24,11,40,19.30
2017,05,24,11,41,24.20
2017,05,24,11,42,27.40
2017,05,24,11,43,27.40
2017,05,24,11,44,19.30
2017,05,24,11,45,27.40
2017,05,24,11,46,24.20
2017,05,24,11,47,35.40
2017,05,24,11,48,32.20
2017,05,24,11,49,35.40
2017,05,24,11,50,19.30
2017,05,24,11,51,27.40
2017,05,24,11,52,25.70
2017,05,24,11,53,17.70
2017,05,24,11,54,33.80
2017,05,24,11,55,25.70
2017,05,24,11,56,30.60
2017,05,24,11,57,29.00
2017,05,24,11,58,25.70
2017,05,24,11,59,19.30
2017,05,24,12,00,32.20
2017,05,24,12,01,33.80
2017,05,24,12,02,27.40
2017,05,24,12,03,24.20
2017,05,24,12,04,22.50
2017,05,24,12,05,25.70
2017,05,24,12,06,30.60
2017,05,24,12,07,33.80
2017,05,24,12,08,25.70
2017,05,24,12,09,22.50
2017,05,24,12,10,19.30
2017,05,24,12,11,25.70
2017,05,24,12,12,22.50
2017,05,24,12,13,20.90
2017,05,24,12,14,29.00
2017,05,24,12,15,32.20
2017,05,24,12,16,25.70
2017,05,24,12,17,17.70
2017,05,24,12,18,24.20
2017,05,24,12,19,33.80
2017,05,24,12,20,29.00
2017,05,24,12,21,22.50
2017,05,24,12,22,29.00
2017,05,24,12,23,30.60
2017,05,24,12,24,29.00
2017,05,24,12,25,22.50
2017,05,24,12,26,16.10
2017,05,24,12,27,25.70
2017,05,24,12,28,29.00
2017,05,24,12,29,20.90
2017,05,24,12,30,29.00
2017,05,24,12,31,29.00
2017,05,24,12,32,24.20
2017,05,24,12,33,24.20
2017,05,24,12,34,22.50
2017,05,24,12,35,17.70
2017,05,24,12,36,22.50
2017,05,24,12,37,24.20
2017,05,24,12,38,19.30
2017,05,24,12,39,24.20
2017,05,24,12,40,22.50
2017,05,24,12,41,27.40
2017,05,24,12,42,27.40
2017,05,24,12,43,27.40
2017,05,24,12,44,24.20
2017,05,24,12,45,27.40
2017,05,24,12,46,38.60
2017,05,24,12,47,40.20
2017,05,24,12,48,32.20
2017,05,24,12,49,30.60
2017,05,24,12,50,25.70
2017,05,24,12,51,24.20
2017,05,24,12,52,20.90
2017,05,24,12,53,27.40
2017,05,24,12,54,24.20
2017,05,24,12,55,30.60
2017,05,24,12,56,35.40
2017,05,24,12,57,33.80
2017,05,24,12,58,29.00
2017,05,24,12,59,35.40
2017,05,24,13,00,29.00
2017,05,24,13,01,27.40
2017,05,24,13,02,35.40
2017,05,24,13,03,41.80
2017,05,24,13,04,32.20
2017,05,24,13,05,30.60
2017,05,24,13,06,30.60
2017,05,24,13,07,29.00
2017,05,24,13,08,27.40
2017,05,24,13,09,29.00
2017,05,24,13,10,29.00
2017,05,24,13,11,27.40
2017,05,24,13,12,30.60
2017,05,24,13,13,24.20
2017,05,24,13,14,25.70
2017,05,24,13,15,24.20
2017,05,24,13,16,19.30
2017,05,24,13,17,27.40
2017,05,24,13,18,27.40
2017,05,24,13,19,29.00
2017,05,24,13,20,24.20
2017,05,24,13,21,24.20
2017,05,24,13,22,27.40
2017,05,24,13,23,27.40
2017,05,24,13,24,22.50
2017,05,24,13,25,27.40
2017,05,24,13,26,20.90
2017,05,24,13,27,19.30
2017,05,24,13,28,19.30
2017,05,24,13,29,24.20
2017,05,24,13,30,25.70
2017,05,24,13,31,27.40
2017,05,24,13,32,30.60
2017,05,24,13,33,25.70
2017,05,24,13,34,24.20
2017,05,24,13,35,25.70
2017,05,24,13,36,20.90
2017,05,24,13,37,27.40
2017,05,24,13,38,30.60
2017,05,24,13,39,35.40
2017,05,24,13,40,35.40
2017,05,24,13,41,30.60
2017,05,24,13,42,35.40
2017,05,24,13,43,30.60
2017,05,24,13,44,30.60
2017,05,24,13,45,24.20
2017,05,24,13,46,32.20
2017,05,24,13,47,27.40
2017,05,24,13,48,25.70
2017,05,24,13,49,27.40
2017,05,24,13,50,32.20
2017,05,24,13,51,33.80
2017,05,24,13,52,30.60
2017,05,24,13,53,22.50
2017,05,24,13,54,32.20
2017,05,24,13,55,27.40
2017,05,24,13,56,29.00
2017,05,24,13,57,27.40
2017,05,24,13,58,22.50
2017,05,24,13,59,20.90
2017,05,24,14,00,22.50
2017,05,24,14,01,32.20
2017,05,24,14,02,35.40
2017,05,24,14,03,25.70
2017,05,24,14,04,17.70
2017,05,24,14,05,20.90
2017,05,24,14,06,27.40
2017,05,24,14,07,27.40
2017,05,24,14,08,37.00
2017,05,24,14,09,30.60
2017,05,24,14,10,27.40
2017,05,24,14,11,29.00
2017,05,24,14,12,40.20
2017,05,24,14,13,25.70
2017,05,24,14,14,27.40
2017,05,24,14,15,29.00
2017,05,24,14,16,24.20
2017,05,24,14,17,19.30
2017,05,24,14,18,22.50
2017,05,24,14,19,27.40
2017,05,24,14,20,27.40
2017,05,24,14,21,17.70
2017,05,24,14,22,32.20
2017,05,24,14,23,30.60
2017,05,24,14,24,27.40
2017,05,24,14,25,24.20
2017,05,24,14,26,29.00
2017,05,24,14,27,32.20
2017,05,24,14,28,27.40
2017,05,24,14,29,22.50
2017,05,24,14,30,20.90
2017,05,24,14,31,33.80
2017,05,24,14,32,29.00
2017,05,24,14,33,25.70
2017,05,24,14,34,32.20
2017,05,24,14,35,29.00
2017,05,24,14,36,30.60
2017,05,24,14,37,24.20
2017,05,24,14,38,32.20
2017,05,24,14,39,27.40
2017,05,24,14,40,20.90
2017,05,24,14,41,22.50
2017,05,24,14,42,24.20
2017,05,24,14,43,22.50
2017,05,24,14,44,20.90
2017,05,24,14,45,22.50
2017,05,24,14,46,20.90
2017,05,24,14,47,19.30
2017,05,24,14,48,19.30
2017,05,24,14,49,8.10
2017,05,24,14,50,6.40
2017,05,24,14,51,32.20
2017,05,24,14,52,24.20
2017,05,24,14,53,25.70
2017,05,24,14,54,20.90
2017,05,24,14,55,22.50
2017,05,24,14,56,24.20
2017,05,24,14,57,16.10
2017,05,24,14,58,19.30
2017,05,24,14,59,19.30
2017,05,24,15,00,11.30
2017,05,24,15,01,16.10
2017,05,24,15,02,16.10
2017,05,24,15,03,9.60
2017,05,24,15,04,30.60
2017,05,24,15,05,27.40
2017,05,24,15,06,35.40
2017,05,24,15,07,27.40
2017,05,24,15,08,27.40
2017,05,24,15,09,27.40
2017,05,24,15,10,20.90
2017,05,24,15,11,30.60
2017,05,24,15,12,27.40
2017,05,24,15,13,9.60
2017,05,24,15,14,14.50
2017,05,24,15,15,20.90
2017,05,24,15,16,25.70
2017,05,24,15,17,27.40
2017,05,24,15,18,24.20
2017,05,24,15,19,20.90
2017,05,24,15,20,22.50
2017,05,24,15,21,17.70
2017,05,24,15,22,25.70
2017,05,24,15,23,17.70
2017,05,24,15,24,17.70
2017,05,24,15,25,17.70
2017,05,24,15,26,32.20
2017,05,24,15,27,27.40
2017,05,24,15,28,22.50
2017,05,24,15,29,25.70
2017,05,24,15,30,25.70
2017,05,24,15,31,20.90
2017,05,24,15,32,12.90
2017,05,24,15,33,17.70
2017,05,24,15,34,22.50
2017,05,24,15,35,19.30
2017,05,24,15,36,22.50
2017,05,24,15,37,17.70
2017,05,24,15,38,25.70
2017,05,24,15,39,25.70
2017,05,24,15,40,20.90
2017,05,24,15,41,30.60
2017,05,24,15,42,25.70
2017,05,24,15,43,20.90
2017,05,24,15,44,32.20
2017,05,24,15,45,29.00
2017,05,24,15,46,33.80
2017,05,24,15,47,30.60
2017,05,24,15,48,19.30
2017,05,24,15,49,16.10
2017,05,24,15,50,17.70
2017,05,24,15,51,25.70
2017,05,24,15,52,24.20
2017,05,24,15,53,9.60
2017,05,24,15,54,20.90
2017,05,24,15,55,25.70
2017,05,24,15,56,22.50
2017,05,24,15,57,25.70
2017,05,24,15,58,25.70
2017,05,24,15,59,27.40
2017,05,24,16,00,22.50
2017,05,24,16,01,27.40
2017,05,24,16,02,27.40
2017,05,24,16,03,17.70
2017,05,24,16,04,35.40
2017,05,24,16,05,32.20
2017,05,24,16,06,33.80
2017,05,24,16,07,32.20
2017,05,24,16,08,25.70
2017,05,24,16,09,9.60
2017,05,24,16,10,9.60
2017,05,24,16,11,8.10
2017,05,24,16,12,19.30
2017,05,24,16,13,22.50
2017,05,24,16,14,20.90
2017,05,24,16,15,19.30
2017,05,24,16,16,14.50
2017,05,24,16,17,9.60
2017,05,24,16,18,29.00
2017,05,24,16,19,17.70
2017,05,24,16,20,8.10
2017,05,24,16,21,17.70
2017,05,24,16,22,19.30
2017,05,24,16,23,22.50
2017,05,24,16,24,20.90
2017,05,24,16,25,19.30
2017,05,24,16,26,16.10
2017,05,24,16,27,30.60
2017,05,24,16,28,29.00
2017,05,24,16,29,22.50
2017,05,24,16,30,11.30
2017,05,24,16,31,20.90
2017,05,24,16,32,22.50
2017,05,24,16,33,16.10
2017,05,24,16,34,25.70
2017,05,24,16,35,24.20
2017,05,24,16,36,22.50
2017,05,24,16,37,17.70
2017,05,24,16,38,25.70
2017,05,24,16,39,19.30
2017,05,24,16,40,19.30
2017,05,24,16,41,27.40
2017,05,24,16,42,29.00
2017,05,24,16,43,25.70
2017,05,24,16,44,17.70
2017,05,24,16,45,30.60
2017,05,24,16,46,17.70
2017,05,24,16,47,19.30
2017,05,24,16,48,19.30
2017,05,24,16,49,17.70
2017,05,24,16,50,20.90
2017,05,24,16,51,22.50
2017,05,24,16,52,27.40
2017,05,24,16,53,27.40
2017,05,24,16,54,19.30
2017,05,24,16,55,22.50
2017,05,24,16,56,20.90
2017,05,24,16,57,20.90
2017,05,24,16,58,20.90
2017,05,24,16,59,24.20
2017,05,24,17,00,22.50
2017,05,24,17,01,22.50
2017,05,24,17,02,20.90
2017,05,24,17,03,25.70
2017,05,24,17,04,16.10
2017,05,24,17,05,9.60
2017,05,24,17,06,6.40
2017,05,24,17,07,6.40
2017,05,24,17,08,25.70
2017,05,24,17,09,25.70
2017,05,24,17,10,25.70
2017,05,24,17,11,16.10
2017,05,24,17,12,20.90
2017,05,24,17,13,22.50
2017,05,24,17,14,14.50
2017,05,24,17,15,17.70
2017,05,24,17,16,20.90
2017,05,24,17,17,25.70
2017,05,24,17,18,27.40
2017,05,24,17,19,25.70
2017,05,24,17,20,14.50
2017,05,24,17,21,22.50
2017,05,24,17,22,8.10
2017,05,24,17,23,11.30
2017,05,24,17,24,22.50
2017,05,24,17,25,17.70
2017,05,24,17,26,17.70
2017,05,24,17,27,22.50
2017,05,24,17,28,20.90
2017,05,24,17,29,27.40
2017,05,24,17,30,24.20
2017,05,24,17,31,16.10
2017,05,24,17,32,17.70
2017,05,24,17,33,9.60
2017,05,24,17,34,22.50
2017,05,24,17,35,19.30
2017,05,24,17,36,22.50
2017,05,24,17,37,20.90
2017,05,24,17,38,22.50
2017,05,24,17,39,16.10
2017,05,24,17,40,16.10
2017,05,24,17,41,24.20
2017,05,24,17,42,17.70
2017,05,24,17,43,19.30
2017,05,24,17,44,9.60
2017,05,24,17,45,17.70
2017,05,24,17,46,14.50
2017,05,24,17,47,25.70
2017,05,24,17,48,25.70
2017,05,24,17,49,11.30
2017,05,24,17,50,12.90
2017,05,24,17,51,8.10
2017,05,24,17,52,8.10
2017,05,24,17,53,9.60
2017,05,24,17,54,25.70
2017,05,24,17,55,11.30
2017,05,24,17,56,22.50
2017,05,24,17,57,20.90
2017,05,24,17,58,14.50
2017,05,24,17,59,20.90
2017,05,24,18,00,11.30
2017,05,24,18,01,24.20
2017,05,24,18,02,16.10
2017,05,24,18,03,16.10
2017,05,24,18,04,20.90
2017,05,24,18,05,22.50
2017,05,24,18,06,14.50
2017,05,24,18,07,20.90
2017,05,24,18,08,19.30
2017,05,24,18,09,22.50
2017,05,24,18,10,17.70
2017,05,24,18,11,25.70
2017,05,24,18,12,19.30
2017,05,24,18,13,32.20
2017,05,24,18,14,29.00
2017,05,24,18,15,24.20
2017,05,24,18,16,22.50
2017,05,24,18,17,22.50
2017,05,24,18,18,24.20
2017,05,24,18,19,24.20
2017,05,24,18,20,25.70
2017,05,24,18,21,25.70
2017,05,24,18,22,3.20
2017,05,24,18,23,16.10
2017,05,24,18,24,9.60
2017,05,24,18,25,14.50
2017,05,24,18,26,11.30
2017,05,24,18,27,16.10
2017,05,24,18,28,14.50
2017,05,24,18,29,19.30
2017,05,24,18,30,16.10
2017,05,24,18,31,8.10
2017,05,24,18,32,22.50
2017,05,24,18,33,20.90
2017,05,24,18,34,11.30
2017,05,24,18,35,20.90
2017,05,24,18,36,24.20
2017,05,24,18,37,17.70
2017,05,24,18,38,20.90
2017,05,24,18,39,9.60
2017,05,24,18,40,16.10
2017,05,24,18,41,19.30
2017,05,24,18,42,14.50
2017,05,24,18,43,4.80
2017,05,24,18,44,24.20
2017,05,24,18,45,24.20
2017,05,24,18,46,20.90
2017,05,24,18,47,22.50
2017,05,24,18,48,19.30
2017,05,24,18,49,24.20
2017,05,24,18,50,30.60
2017,05,24,18,51,25.70
2017,05,24,18,52,14.50
2017,05,24,18,53,14.50
2017,05,24,18,54,16.10
2017,05,24,18,55,20.90
2017,05,24,18,56,6.40
2017,05,24,18,57,19.30
2017,05,24,18,58,11.30
2017,05,24,18,59,20.90
2017,05,24,19,00,16.10
2017,05,24,19,01,20.90
2017,05,24,19,02,19.30
2017,05,24,19,03,25.70
2017,05,24,19,04,29.00
2017,05,24,19,05,22.50
2017,05,24,19,06,19.30
2017,05,24,19,07,25.70
2017,05,24,19,08,17.70
2017,05,24,19,09,17.70
2017,05,24,19,10,19.30
2017,05,24,19,11,24.20
2017,05,24,19,12,11.30
2017,05,24,19,13,17.70
2017,05,24,19,14,9.60
2017,05,24,19,15,17.70
2017,05,24,19,16,20.90
2017,05,24,19,17,20.90
2017,05,24,19,18,17.70
2017,05,24,19,19,14.50
2017,05,24,19,20,20.90
2017,05,24,19,21,14.50